Other Public Products
Issued by NWS Grand Forks, ND

Home | Current Version | Previous Version | Graphics & Text | Print | Product List | Glossary On
Versions: 1 2 3 4 5 6 7 8 9 10 11 12 13 14 15 16 17 18 19 20 21 22 23 24 25 26 27 28 29 30 31 32 33 34 35 36 37 38 39 40 41 42 43 44 45 46 47 48 49 50
000
FPUS83 KFGF 261210
OPUFGF
PRAIRIE TO PINES WEATHER ROUNDUP
NATIONAL WEATHER SERVICE EASTERN NORTH DAKOTA/GRAND FORKS ND
700 AM CDT THU APR 26 2018

 **SATELLITE DATA USED TO AUGMENT SKY COVER AT AUTOMATED STATIONS**
 *****  WEATHER ACROSS EASTERN NORTH DAKOTA  *****

CITY           SKY/WX    TMP DP  RH WIND       PRES   REMARKS
GRAND FORKS    FAIR      36  31  82 NW13      29.99R
6HR MIN TEMP:  36; 6HR MAX TEMP:  48;

GRND FORKS AFB FAIR      38  29  71 N12       30.00R
GRND FORKS NWS   N/A     38  31  77 N6        29.96R
BUXTON           N/A     39  36  87 N17         N/A
DEVILS LAKE    FAIR      33  27  78 NW9       30.06R
6HR MIN TEMP:  33; 6HR MAX TEMP:  47;

FARGO          FAIR      40  33  76 N18       29.94R
6HR MIN TEMP:  40; 6HR MAX TEMP:  49;

WAHPETON ARPT  FAIR      43  32  65 N20G26    29.91R
$$

 *****  WEATHER ACROSS CENTRAL AND WESTERN NORTH DAKOTA  *****

CITY           SKY/WX    TMP DP  RH WIND       PRES   REMARKS
JAMESTOWN      FAIR      36  29  75 NW12      30.02R
6HR MIN TEMP:  36; 6HR MAX TEMP:  49;

BISMARCK       FAIR      40  31  70 NW10      30.10R
6HR MIN TEMP:  39; 6HR MAX TEMP:  53;

MINOT          FAIR      34  28  79 SW3       30.11R
6HR MIN TEMP:  34; 6HR MAX TEMP:  48;

MINOT AFB      FAIR      31  26  84 NW7       30.09R WCI  24
6HR MIN TEMP:  30; 6HR MAX TEMP:  44;

GARRISON         N/A     32  28  85 NW9       30.11R WCI  24
6HR MIN TEMP:  32; 6HR MAX TEMP:  47;

WILLISTON      FAIR      28  22  78 CALM      30.16R
6HR MIN TEMP:  28; 6HR MAX TEMP:  45;

DICKINSON      FAIR      32  28  85 W6        30.13R
6HR MIN TEMP:  30; 6HR MAX TEMP:  46;

HETTINGER      FAIR      31  27  85 NW5       30.16R
6HR MIN TEMP:  31; 6HR MAX TEMP:  48;

$$

 *****  OTHER OBSERVATIONS NORTHEAST NORTH DAKOTA  *****

CITY           SKY/WX    TMP DP  RH WIND       PRES   REMARKS
WALHALLA       FAIR      36  30  80 NW13      30.03R
LANGDON        FAIR      32  32 100 NW9       30.04R WCI  24
CAVALIER         N/A     37  28  70 NW13      30.02R
GRAFTON        FAIR      37  30  75 NW13      30.02R
CANDO          FAIR      32  28  86 NW7       30.08R
FORT TOTTEN      N/A     33  27  78 N3        29.95S
ROLLA          FAIR      32  28  86 NW10      30.08R WCI  24
RUGBY          FAIR      28  25  86 NW6       30.08R WCI  22
 ***** THE ABOVE OBSERVATIONS ARE NON NWS ARE NOT QUALITY
        CONTROLLED AND MAY MIS-REPORT RAIN FOR SNOW...
$$

 *****  OTHER OBSERVATIONS SOUTHEAST NORTH DAKOTA *****

CITY           SKY/WX    TMP DP  RH WIND       PRES   REMARKS
COOPERSTOWN    FAIR      36  30  80 NW12      30.01R
VALLEY CITY    FAIR      37  32  81 N14       30.02R
OAKES            N/A     39  32  75 N16       29.98R
GWINNER          N/A     41  32  70 N17       29.96R
SHEYENNE NWR     N/A     44  31  60 N12       29.95S
BUFFALO          N/A     38  30  73 N14         N/A
WYNDMERE       NOT AVBL
 ***** THE ABOVE OBSERVATIONS ARE NON NWS ARE NOT QUALITY
       CONTROLLED AND MAY MIS-REPORT RAIN FOR SNOW...
$$

  *****  WEATHER ACROSS NORTHERN MINNESOTA  *****

CITY           SKY/WX    TMP DP  RH WIND       PRES   REMARKS
FLAG ISLAND    FAIR      37  34  87 NW13      29.89R
WARROAD        FAIR      36  30  80 NW8       29.91R
ROSEAU         FAIR      36  30  80 NW7       29.92R
HALLOCK        FAIR      36  28  75 N13       29.99R
THF RVR FALLS  FAIR      39  29  67 NW16      29.94R
6HR MIN TEMP:  37; 6HR MAX TEMP:  47;

HALSTAD        NOT AVBL
FOSSTON        FAIR      36  30  80 NW8       29.92R
BAUDETTE       FAIR      40  35  83 NW13      29.87R
6HR MIN TEMP:  39; 6HR MAX TEMP:  46;

WASKISH        FAIR      37  34  87 NW5       29.86R
CROOKSTON      FAIR      37  30  75 N17       29.97R
$$
  *****  WEATHER ACROSS CENTRAL AND WEST MINNESOTA  *****

CITY           SKY/WX    TMP DP  RH WIND       PRES   REMARKS
BEMIDJI        FAIR      41  33  73 NW14      29.86R
6HR MIN TEMP:  37; 6HR MAX TEMP:  45;

PARK RAPIDS    FAIR      40  33  76 N9        29.85R
6HR MIN TEMP:  33; 6HR MAX TEMP:  43;

WADENA         FAIR      39  32  75 NW9       29.84R
DETROIT LAKES  FAIR      41  34  75 N8G23     29.90R
MOORHEAD       FAIR      39  30  70 N17       29.94R
FERGUS FALLS   FAIR      43  34  70 N14G20    29.87R
ELBOW LAKE     FAIR      39  35  84 NW13G18   29.85R
6HR MIN TEMP:  35; 6HR MAX TEMP:  43;

MORRIS MN      FAIR      43  36  75 NW13      29.83R
STAPLES        MOCLDY    36  30  80 W5        29.83R
WHEATON        FAIR      43  34  70 NW15      29.91R
$$
  *****  WEATHER ELSEWHERE ACROSS MINNESOTA  *****

CITY           SKY/WX    TMP DP  RH WIND       PRES   REMARKS
DULUTH         FAIR      43  30  60 SW14      29.78F
6HR MIN TEMP:  41; 6HR MAX TEMP:  45;

INTRNTL FALLS  FAIR      43  36  76 N16       29.82R
6HR MIN TEMP:  35; 6HR MAX TEMP:  46;

ELY            FAIR      39  27  60 CALM      29.76R
CLOQUET        FAIR      39  28  65 SW9       29.79F
BRAINERD       FAIR      39  30  70 SW6       29.82R
6HR MIN TEMP:  36; 6HR MAX TEMP:  45;

HIBBING        MOCLDY    31  27  85 CALM      29.77S
6HR MIN TEMP:  25; 6HR MAX TEMP:  39;

ALEXANDRIA     FAIR      42  31  64 W7        29.84R
6HR MIN TEMP:  42; 6HR MAX TEMP:  48;

SAINT CLOUD    FAIR      38  33  82 SE8       29.82S
6HR MIN TEMP:  36; 6HR MAX TEMP:  42;

MINNEAPOLIS    MOCLDY    46  35  65 S7        29.87F
6HR MIN TEMP:  45; 6HR MAX TEMP:  48;

$$

  *****  WEATHER ACROSS SOUTH DAKOTA  *****

CITY           SKY/WX    TMP DP  RH WIND       PRES   REMARKS
SIOUX FALLS    MOCLDY    44  32  62 SW8       29.86R
6HR MIN TEMP:  42; 6HR MAX TEMP:  49;

BROOKINGS      MOCLDY    44  35  70 W7        29.88R
WATERTOWN      FAIR      42  35  76 N16       29.89R
6HR MIN TEMP:  36; 6HR MAX TEMP:  42;

HURON          FAIR      43  35  73 N20G33    29.90R
6HR MIN TEMP:  43; 6HR MAX TEMP:  48;

SISSETON         N/A     42  33  70 NW17      29.91R
ABERDEEN       FAIR      43  33  68 N21       29.98R
6HR MIN TEMP:  36; 6HR MAX TEMP:  46;

MITCHELL       FAIR      48  37  65 NW14      29.88R
PIERRE         FAIR      42  33  70 N20       30.03R
6HR MIN TEMP:  42; 6HR MAX TEMP:  53;

MOBRIDGE       FAIR      39  30  70 NW9       30.04R
RAPID CITY     FAIR      44  32  62 NW16      30.17R
6HR MIN TEMP:  43; 6HR MAX TEMP:  55;

$$

  *****  SOME WEATHER IN NEARBY STATES *****

CITY           SKY/WX    TMP DP  RH WIND       PRES   REMARKS
GLASGOW MT     FAIR      35  29  78 W5        30.18S
6HR MIN TEMP:  35; 6HR MAX TEMP:  43;

GREAT FALLS MT FAIR      39  28  64 S9        30.20S
6HR MIN TEMP:  32; 6HR MAX TEMP:  41;

CHEYENNE WY    CLOUDY    39  29  67 N18G25    30.21R
6HR MIN TEMP:  38; 6HR MAX TEMP:  48;

SCOTTSBLUFF NE FAIR      45  33  63 NW12      30.16R
6HR MIN TEMP:  45; 6HR MAX TEMP:  56;

OMAHA NE       CLOUDY    40  35  83 SE7       29.97S
6HR MIN TEMP:  39; 6HR MAX TEMP:  48;

DES MOINES IA  CLOUDY    41  34  76 W3        29.96R
6HR MIN TEMP:  39; 6HR MAX TEMP:  51;

DAVENPORT IA   FAIR      37  32  82 SE6       29.97R
6HR MIN TEMP:  34; 6HR MAX TEMP:  44;

CHICAGO IL     FAIR      38  31  76 CALM      29.96R
6HR MIN TEMP:  36; 6HR MAX TEMP:  40;

EAU CLAIRE WI  FAIR      32  27  81 CALM      29.89R
6HR MIN TEMP:  30; 6HR MAX TEMP:  38;

LA CROSSE WI   FAIR      41  35  79 SE6       29.92S
6HR MIN TEMP:  39; 6HR MAX TEMP:  44;

$$

  *****  SOME NATIONAL WEATHER *****

CITY           SKY/WX    TMP DP  RH WIND       PRES   REMA



USA.gov is the U.S. government's official web portal to all federal, state and local government web resources and services.